Find Starlink 32035

NORAD ID: 60107 Int'l Des: 2024-117 Owner: SPXS Country: US Constellation: starlink operational
LEOCIRCULAR

現在のビュー

3D地球を読み込み中...

About Starlink 32035

Starlink 32035 (NORAD 60107) is a starlink constellation satellite (v2 mini) launched Jun 23, 2024 by SPXS of US. It operates in LEO, CIRCULAR orbit with a mass of 730.00 kg.

次回通過

Passes for default location (London). Set your location on the main map for personalized predictions.

高度履歴

Loading altitude history...

軌道要素

1 60107U 24117S 26265.22536166 .00000705 00000-0 32025-4 0 9999
2 60107 53.1592 201.6334 0001526 89.3419 270.7758 15.34387370127016
Epoch: Sep 22, 2026 • Age: 6 hours

現在のステータス

高度 479.3 km
遠地点 / 近地点 N/A
速度 7.63 km/s
衛星直下点 -45.90°S, 97.88°W
打ち上げ日 Jun 23, 2024
運用期間 2.2 years
タイプ internet

技術仕様

分類 Payload
質量 730.00 kg
乾燥質量 700.00 kg
長さ 0.30 m
スパン 29.00 m
形状 ? Box + pan
製造者 SPXS
バスタイプ Starlink V2M
フェーズステータス In Orbit
所有者/国 SPXS/US

Most Searched